Greenville, SC

2:31 PM EDT on October 22, 2017 (GMT -0400)
Donaldson Center

Weather History for KGYH - October, 2012

Change the Weather History Date:

Thursday, October 4, 2012

  Actual Average (KGMU) Record (KGMU)
Temperature  
Mean Temperature 70 °F -  
Max Temperature 80 °F 72 °F 86 °F (2013)
Min Temperature 60 °F 54 °F 48 °F (2003)
Cooling Degree Days 5    
Growing Degree Days 20 (Base 50)    
Moisture  
Dew Point 61 °F    
Average Humidity 85    
Maximum Humidity 100    
Minimum Humidity 42    
Precipitation  
Precipitation 0.00 in - - ()
Sea Level Pressure  
Sea Level Pressure 30.23 in    
Wind  
Wind Speed 1 mph (West)    
Max Wind Speed 5 mph    
Max Gust Speed -    
Visibility 8 miles    
Events      
Averages and records for this station are not official NWS values.
T = Trace of Precipitation, MM = Missing Value Source: NWS Daily Summary

Daily Weather History Graph

Daily Weather History Graph

Search for Another Location

Airport or City:

Trip Planner

Search our weather history database for the weather conditions in past years. The results will help you decide how hot, cold, wet, or windy it might be!

Date:

Astronomy

Oct. 04, 2012 Rise Set
Actual Time 7:26 AM EDT 7:08 PM EDT
Civil Twilight 7:01 AM EDT 7:33 PM EDT
Nautical Twilight 6:32 AM EDT 8:03 PM EDT
Astronomical Twilight 6:03 AM EDT 8:32 PM EDT
Moon 9:54 PM EDT (10/4) 11:32 AM EDT (10/4)
Length of Visible Light 12h 32m
Length of Day
11h 41m
Waning Gibbous, 82% of the Moon is Illuminated
Oct 4
Waning Gibbous
Oct 8
Last Quarter
Oct 15
New
Oct 21
First Quarter
Oct 29
Full

Hourly Weather History & Observations

Time (EDT) Temp. Heat Index Dew Point Humidity Pressure Visibility Wind Dir Wind Speed Gust Speed Precip Events Conditions
12:15 AM 64.4 °F - 62.6 °F 94% 30.23 in 10.0 mi Calm Calm - N/A   Clear
12:35 AM 64.4 °F - 62.6 °F 94% 30.23 in 10.0 mi Calm Calm - N/A   Scattered Clouds
12:55 AM 64.4 °F - 62.6 °F 94% 30.23 in 10.0 mi SW 3.5 mph - N/A   Mostly Cloudy
1:15 AM 64.4 °F - 64.4 °F 100% 30.23 in 10.0 mi Calm Calm - N/A   Mostly Cloudy
1:35 AM 64.4 °F - 62.6 °F 94% 30.22 in 10.0 mi Calm Calm - N/A   Scattered Clouds
1:55 AM 64.4 °F - 62.6 °F 94% 30.22 in 10.0 mi Calm Calm - N/A   Clear
2:15 AM 62.6 °F - 62.6 °F 100% 30.22 in 7.0 mi Calm Calm - N/A   Scattered Clouds
2:35 AM 62.6 °F - 62.6 °F 100% 30.22 in 5.0 mi Calm Calm - N/A   Scattered Clouds
2:55 AM 64.4 °F - 62.6 °F 94% 30.22 in 7.0 mi Calm Calm - N/A   Scattered Clouds
3:15 AM 64.4 °F - 62.6 °F 94% 30.22 in 7.0 mi Calm Calm - N/A   Scattered Clouds
3:35 AM 62.6 °F - 62.6 °F 100% 30.22 in 5.0 mi Calm Calm - N/A   Scattered Clouds
3:55 AM 62.6 °F - 62.6 °F 100% 30.22 in 5.0 mi Calm Calm - N/A   Clear
4:15 AM 62.6 °F - 62.6 °F 100% 30.21 in 7.0 mi Calm Calm - N/A   Clear
4:35 AM 62.6 °F - 62.6 °F 100% 30.22 in 5.0 mi Calm Calm - N/A   Clear
4:55 AM 62.6 °F - 62.6 °F 100% 30.22 in 7.0 mi Calm Calm - N/A   Clear
5:15 AM 62.6 °F - 62.6 °F 100% 30.23 in 5.0 mi West 3.5 mph - N/A   Clear
5:35 AM 62.6 °F - 62.6 °F 100% 30.22 in 5.0 mi Calm Calm - N/A   Clear
5:55 AM 62.6 °F - 62.6 °F 100% 30.23 in 4.0 mi Calm Calm - N/A   Clear
6:15 AM 62.6 °F - 62.6 °F 100% 30.24 in 4.0 mi Calm Calm - N/A   Clear
6:35 AM 62.6 °F - 62.6 °F 100% 30.24 in 5.0 mi Calm Calm - N/A   Clear
6:47 AM 62.6 °F - 62.6 °F 100% 30.24 in 4.0 mi Calm Calm - N/A   Clear
7:47 AM 62.6 °F - 62.6 °F 100% 30.25 in 2.0 mi Calm Calm - N/A   Clear
8:47 AM 64.4 °F - 64.4 °F 100% 30.26 in 3.0 mi Calm Calm - N/A   Clear
9:47 AM 66.2 °F - 64.4 °F 94% 30.27 in 7.0 mi Calm Calm - N/A   Clear
10:47 AM 69.8 °F - 64.4 °F 83% 30.28 in 10.0 mi WNW 3.5 mph - N/A   Clear
11:47 AM 73.4 °F - 62.6 °F 69% 30.27 in 10.0 mi Calm Calm - N/A   Clear
12:47 PM 75.2 °F - 57.2 °F 53% 30.26 in 10.0 mi Calm Calm - N/A   Clear
1:47 PM 78.8 °F - 57.2 °F 47% 30.24 in 10.0 mi Calm Calm - N/A   Clear
2:55 PM 80.6 °F 80.5 °F 55.4 °F 42% 30.22 in 10.0 mi Calm Calm - N/A   Clear
3:47 PM 80.6 °F 80.5 °F 55.4 °F 42% 30.21 in 10.0 mi WSW 4.6 mph - N/A   Clear
4:47 PM 80.6 °F 80.5 °F 55.4 °F 42% 30.20 in 10.0 mi WSW 3.5 mph - N/A   Clear
6:47 PM 75.2 °F - 57.2 °F 53% 30.19 in 10.0 mi Calm Calm - N/A   Clear
7:47 PM 71.6 °F - 59.0 °F 64% 30.19 in 10.0 mi Calm Calm - N/A   Clear
8:47 PM 68.0 °F - 60.8 °F 78% 30.21 in 10.0 mi Calm Calm - N/A   Clear
9:15 PM 66.2 °F - 59.0 °F 78% 30.21 in 10.0 mi Calm Calm - N/A   Clear
9:35 PM 69.8 °F - 59.0 °F 68% 30.22 in 10.0 mi North 4.6 mph - N/A   Clear
10:15 PM 69.8 °F - 55.4 °F 60% 30.22 in 10.0 mi NNE 4.6 mph - N/A   Clear
10:35 PM 68.0 °F - 59.0 °F 73% 30.23 in 10.0 mi Calm Calm - N/A   Clear
10:55 PM 62.6 °F - 59.0 °F 88% 30.23 in 10.0 mi Calm Calm - N/A   Clear
11:15 PM 62.6 °F - 59.0 °F 88% 30.24 in 10.0 mi Calm Calm - N/A   Clear
11:35 PM 60.8 °F - 59.0 °F 94% 30.24 in 10.0 mi Calm Calm - N/A   Clear
11:55 PM 66.2 °F - 59.0 °F 78% 30.23 in 10.0 mi Calm Calm - N/A   Clear